Location: Unspecified
(17.6330°N, 0.0000°E)
Time: 18:14:04
(UTC+00:00)

A-11 Canister half - Pass Details

Date: 24 June 2019
Orbit: 1514 x 1686 km, 47.2° (Epoch: 17 August)

Event Time Altitude Azimuth Distance (km) Brightness Sun altitude
Rises 17:01:55 0° 321° (NW) 4,731 12.5 20.4°
Reaches altitude 10° 17:05:06 10° 325° (NW) 3,726 12.1 19.7°
Maximum altitude 17:14:20 61° 45° (NE) 1,690 9.4 17.6°
Drops below altitude 10° 17:23:23 10° 124° (ESE) 3,664 10.5 15.6°
Sets 17:26:27 0° 127° (SE) 4,648 10.9 14.9°
